CAPE
0 0 0 0 0 0 0 0 0 0 0 0 0 0 0 0 0 0 179 156 185 337 410 188 396 205 0 136 790 1108 1143 1074 1068 1225 1295 1249 1421 1474 1446 1411 1344 1354 1351 1157 1157 1364 1510 1462 1748 1602 1751 1458 1427 1508 1399 1744 1535 1314 1414 1533 1614 1661 1702 1778 1610 1601 1652 1586 1496 1450 1456 1404 1257 1057 1003 1044 956 1028 1074 1037 1142 1263 1476 1740 1612 1676
0 0 0 0 0 0 0 0 0 0 0 0 0 0 0 0 0 0 32 83 334 254 30 0 98 0 16 191 687 1065 1021 994 971 1160 1254 1094 1260 1459 1375 1274 1364 1404 1331 1222 1315 1556 1562 1602 1853 1724 1683 1467 1394 1606 1464 1722 1679 1400 1557 1531 1546 1694 1820 1830 1612 1784 1429 1428 1325 1325 1385 1283 1136 1158 1279 1082 1005 1096 1104 1080 1141 1201 1415 1621 1508 1730
0 0 0 0 0 0 0 0 0 0 0 0 0 0 0 0 0 0 30 130 268 205 9 3 0 0 59 266 556 963 1022 1027 881 1038 1125 965 1101 1305 1248 1156 1263 1344 1540 1418 1436 1630 1651 1758 1955 1813 1674 1421 1314 1562 1523 1718 1812 1530 1634 1634 1633 1808 1897 1905 1807 1834 1802 1591 1512 1428 1331 1268 1227 1142 1222 1168 1103 1269 1087 1079 1229 1196 1390 1433 1333 1484
0 0 0 0 0 0 0 0 0 0 0 0 0 0 0 0 0 0 0 120 172 2 0 0 0 7 456 556 656 619 706 527 762 1044 1046 1030 998 1103 1127 1014 1093 1246 1724 1680 1593 1706 1758 1892 2008 1870 1718 1484 1330 1515 1567 1748 1991 1759 1645 1841 1842 1916 1988 1956 2067 1922 1896 1878 1816 1608 1269 1333 1302 1173 1184 1166 1119 1109 1143 1103 1378 1296 1388 1331 1121 1361
0 0 0 0 0 0 0 0 0 0 0 0 0 0 0 0 0 0 0 175 200 224 64 0 0 0 428 728 881 788 812 726 751 1035 1033 981 998 980 982 970 1038 1217 1558 1799 1727 1812 1992 2108 2048 1962 1814 1672 1484 1506 1561 1721 2027 1932 1768 1981 2071 2044 2104 2086 2422 1975 1944 2034 1945 1656 1599 1188 1184 1168 1102 1163 1066 1115 1331 1292 1244 1282 1360 1322 1038 1332
0 0 0 0 0 0 0 0 0 0 0 0 0 0 0 0 0 0 0 124 63 16 0 0 0 85 384 594 824 816 813 603 692 619 753 737 701 910 1021 1082 1124 1247 1483 1737 1800 1908 2141 2344 2159 2084 1958 1859 1658 1589 1593 1707 1927 2080 1859 2076 2257 2244 2215 2280 2453 2001 1932 1973 1702 1662 1645 1333 1052 1111 1092 1199 1222 1254 1341 1397 1337 1322 1349 1244 1113 1244
0 0 0 0 0 0 0 0 0 0 0 0 0 0 0 0 0 0 0 0 0 0 0 1 2 0 206 442 726 780 670 517 507 517 500 544 922 971 1039 1081 1130 1178 1337 1634 1750 1895 2120 2522 2474 2265 2168 1991 1849 1770 1706 1780 1940 2190 2080 2171 2257 2354 2343 2374 2453 2116 1997 1879 1736 1717 1651 1442 1161 1025 1102 1134 1293 1294 1329 1376 1406 1478 1401 1149 1196 1263
0 0 0 0 0 0 0 0 0 0 0 0 0 0 0 0 0 0 0 0 0 0 164 0 0 0 0 208 629 617 604 636 484 410 549 559 647 960 974 1042 1210 1215 1234 1454 1542 1774 2038 2381 2662 2570 2449 2332 2148 1915 1877 1861 1963 2204 2221 2324 2292 2280 2435 2510 2463 2156 2036 1807 1832 1737 1674 1421 1062 974 1051 1127 1312 1320 1358 1358 1403 1498 1476 1268 1245 1360
0 0 0 0 0 0 0 0 0 0 0 0 0 0 0 0 0 0 0 0 0 0 0 0 0 0 24 221 559 795 756 710 617 486 484 706 917 762 1002 1131 1334 1372 1324 1264 1335 1385 1778 2291 2507 2618 2649 2557 2327 2192 2016 1928 1966 2112 2278 2510 2408 2340 2385 2360 1977 1974 1916 1912 1929 1797 1626 1309 977 871 974 1017 1211 1311 1476 1313 1334 1474 1468 1363 1381 1469
0 0 0 0 0 0 0 0 0 0 0 0 0 0 0 0 0 0 0 0 0 0 0 0 0 0 0 157 510 563 496 588 727 486 362 704 1315 864 1003 1144 1358 1457 1437 1356 1288 1242 1628 2191 2431 2512 2585 2634 2532 2285 2187 2043 1920 2070 2272 2467 2479 2440 2318 1993 1952 1931 1648 1968 2197 1906 1648 1312 997 1217 1011 917 978 1124 1339 1132 1150 1370 1454 1339 1377 1512
0 0 0 0 0 0 0 0 0 0 0 0 0 0 0 0 0 0 0 0 0 0 0 0 0 0 17 6 37 66 148 178 501 640 805 919 955 1055 835 1138 1210 1233 1538 1600 1470 1381 1639 2215 2486 2613 2618 2631 2578 2542 2438 2197 2180 2118 2058 2129 2132 2083 2103 2104 1893 1913 1517 1802 2009 1986 1594 1236 1028 1117 1088 1034 898 861 1174 1090 891 1187 1421 1320 1287 1390
0 0 0 0 0 0 0 0 0 0 0 0 0 0 0 0 0 0 0 0 0 0 0 2 0 0 16 14 2 0 5 217 579 742 748 476 674 686 838 933 1278 1236 1825 1998 1719 1571 1876 2326 2606 2714 2657 2705 2774 2703 2636 2364 2338 2366 2136 1965 1849 2025 2166 2158 2161 1799 1538 1679 1795 1758 1595 1601 1331 1190 1096 1174 1023 963 1004 1021 803 951 1352 1364 1242 1324
0 0 0 0 0 0 0 0 0 0 0 0 0 0 0 0 0 0 0 0 0 0 0 0 0 0 0 0 0 0 13 472 718 666 547 710 587 765 1233 1642 1513 1611 2092 2198 2005 1807 1921 2219 2558 2682 2695 2623 2640 2664 2621 2386 2373 2335 1845 1603 1866 1916 2064 2226 2140 1712 1849 1949 1699 1689 1642 1482 1588 1845 1319 1112 1047 1076 1008 947 924 938 1221 1354 1237 1242
0 0 0 0 0 0 0 0 0 0 0 0 0 0 0 0 0 0 0 0 0 0 0 7 19 0 0 2 0 0 5 584 619 610 791 746 649 744 1044 1825 1757 1749 2039 2240 2131 1955 1925 2087 2360 2589 2623 2587 2542 2487 2421 2248 2210 2130 1747 2099 2196 2007 2282 2360 2136 1987 1958 2044 1912 1704 1589 1384 1389 2367 1859 1430 1155 1132 1073 1056 1084 1065 1140 1260 1236 1202
0 0 0 0 0 0 0 0 0 0 0 0 0 0 0 0 0 0 0 0 0 0 5 62 0 0 17 0 209 7 146 608 640 705 669 613 806 990 1064 1334 1919 1738 1834 2130 2144 2039 1959 1941 2127 2374 2570 2582 2542 2477 2358 2211 2019 1847 2776 2497 2429 2229 2303 2404 2301 2232 2214 2043 2011 1866 1588 1315 1437 2197 2111 1512 1161 1132 1091 1100 1148 1103 1159 1177 1206 1280
0 0 0 0 0 0 0 0 0 0 0 0 0 0 0 0 0 0 0 0 0 1 10 2 28 199 0 0 348 594 680 731 882 803 930 1003 1037 958 1395 1659 1877 1745 1664 1872 2059 1978 1897 1857 1853 1996 2165 2310 2423 2388 1867 1734 1995 2358 2843 2828 2570 2616 2565 2532 2628 2570 2397 2228 2089 2033 1760 1452 1501 2452 2319 1998 2306 1331 1038 1101 1076 1039 1154 1167 1210 1363
0 0 0 0 0 0 0 0 0 0 0 0 0 0 0 0 0 0 1 51 0 0 8 173 18 8 167 376 492 511 554 618 716 872 929 966 842 743 929 1560 1908 1923 1818 1724 1679 1845 1855 1822 1838 1832 1824 1844 1838 1736 1742 1765 2074 2288 2772 3205 3247 3105 2877 2662 2807 2837 2670 2359 2100 1921 1774 1653 1623 1971 2393 2079 2273 2111 1487 1319 1179 1107 1159 1226 1214 1350
0 0 0 0 0 0 0 0 0 0 0 0 0 0 0 0 0 0 0 0 0 0 25 7 17 9 1 230 394 370 540 730 841 956 956 873 782 726 830 1138 1749 1976 2144 1850 1624 1528 1481 1542 1587 1610 1612 1653 1675 1620 1624 1701 1934 2245 2601 2865 3098 3066 3007 2806 2713 2692 2592 2411 2146 2016 1917 1879 1804 1832 2185 2213 2174 2165 1857 1596 1485 1287 1322 1394 1300 1331
0 0 0 0 0 0 0 0 0 0 0 0 0 0 0 0 0 0 0 0 0 1 14 16 77 168 187 44 321 488 690 891 941 982 990 844 825 926 1022 1217 1496 2006 2196 2102 1910 1717 1524 1457 1402 1392 1471 1534 1636 1581 1478 1610 1911 2026 2465 2773 2875 2854 2759 2677 2568 2574 2514 2376 2159 1998 2015 2035 1940 1826 1949 2100 2488 2253 1951 1640 1476 1432 1331 1405 1373 1428
0 0 0 0 0 0 0 0 0 0 0 0 0 0 0 0 0 0 0 0 0 31 5 11 0 21 18 0 284 382 563 675 913 823 851 858 923 954 896 1228 1695 2142 2213 2123 2006 1807 1618 1486 1445 1532 1551 1668 1718 1650 1484 1539 1889 1980 2073 2396 2620 2711 2614 2598 2647 2650 2590 2416 2238 2099 1986 2111 2139 2009 1946 2072 2444 2572 2233 1849 1620 1451 1393 1306 1299 1324
0 0 0 0 0 0 0 0 0 0 0 0 0 0 0 0 0 0 4 3 1 0 0 113 33 0 0 0 1 43 444 646 638 662 804 915 919 879 800 1213 1628 1997 2011 2056 2034 1869 1678 1561 1579 1627 1683 1778 1908 1899 1876 1729 1594 1847 2033 2234 2561 2784 2814 2712 2670 2608 2491 2369 2313 2228 2230 2199 2129 2085 2075 2111 2311 2582 2680 2457 1998 1642 1526 1415 1342 1234
0 0 8 0 0 0 0 0 0 0 0 0 0 0 0 0 0 0 2 0 0 14 8 0 0 0 0 298 44 0 4 487 815 796 891 947 942 945 710 1041 1366 1567 1821 1848 1885 1852 1706 1675 1735 1704 1795 1962 2043 2063 2024 1948 1768 1639 1885 1998 2235 2647 2848 2804 2635 2463 2194 2228 2262 2155 2168 2168 2116 2097 2112 2114 2369 2495 2617 2640 2546 2263 1750 1633 1488 1347
0 0 2 0 0 0 0 0 0 0 0 7 0 0 0 0 0 0 0 0 0 0 35 0 0 6 0 65 308 112 144 164 730 852 875 1000 1009 1030 835 754 826 1077 1312 1547 1798 1841 1776 1823 1862 1870 1961 2075 2062 2072 2082 1999 1821 1652 1556 1668 1886 2133 2370 2503 2530 2338 2079 2049 2154 2094 2056 2140 2288 2305 2234 2174 2276 2515 2579 2592 2561 2414 2189 1968 1807 1677
1958 0 0 0 0 0 0 0 0 0 0 12 3 0 0 0 0 0 0 0 0 0 20 10 57 0 0 264 580 403 444 446 474 519 526 853 1092 1052 874 1040 1214 1212 1171 1250 1097 1294 1901 2017 2025 2017 2090 2234 2207 2198 2086 1948 1751 1600 1556 1563 1715 1994 2200 2255 2139 1925 1806 1906 2196 2391 2424 2408 2427 2444 2366 2224 2231 2360 2513 2546 2501 2439 2315 2174 2044 1966
0 82 0 0 0 0 0 0 0 0 0 11 5 2 0 0 0 0 0 0 10 149 0 0 0 0 1 145 543 433 55 94 215 498 554 904 1070 972 1021 1072 1132 1285 1331 1239 1221 1295 1968 2275 2178 2118 2212 2352 2337 2244 2153 2156 1958 1736 1637 1640 1718 1814 2069 2197 2148 2125 2164 2219 2316 2424 2444 2403 2290 2262 2242 2196 2204 2272 2361 2397 2474 2467 2436 2356 2220 2099
0 0 0 0 0 0 0 0 0 0 0 0 0 0 0 0 0 0 0 0 0 264 280 0 0 0 0 0 98 70 111 371 798 759 1275 1066 972 961 1172 1318 1338 1023 1150 1214 1289 1489 2271 2639 2522 2369 2318 2342 2352 2321 2344 2285 2036 1854 1809 1835 1975 2172 2230 2160 2160 2180 2231 2291 2368 2438 2462 2423 2345 2249 2168 2087 2034 2070 2190 2432 2468 2419 2364 2270 2180 2093
0 0 0 0 0 0 0 0 0 0 0 0 0 0 0 0 0 0 0 1 500 292 164 291 136 12 2 28 49 204 247 268 624 1555 1632 1707 1455 1263 1271 1491 1302 1041 1021 1066 1324 1679 2185 2563 2677 2600 2499 2268 2369 2498 2501 2388 2142 2039 1959 2125 2229 2186 2054 2136 2178 2194 2209 2233 2234 2261 2297 2338 2412 2362 2258 2129 2019 2014 2162 2389 2560 2598 2556 2476 2342 2232
0 0 0 0 0 0 0 0 0 0 0 0 0 0 0 0 0 0 0 219 453 137 0 0 314 60 29 5 4 322 385 245 501 1579 2182 2078 1956 1846 1930 1903 2315 1284 1060 1088 1043 1549 1929 2178 2435 2586 2754 2815 2600 2620 2625 2535 2466 2465 2352 2354 2238 2204 2118 2044 2033 1991 2006 2035 2025 2004 2007 2022 2074 2168 2155 2077 2032 2185 2278 2375 2496 2600 2633 2610 2533 2480
0 0 0 0 0 0 0 0 0 0 0 0 0 0 0 0 0 0 235 578 33 0 0 225 99 22 25 139 588 764 628 762 1062 881 1649 2053 2268 2255 2017 1862 1458 1254 984 998 1063 892 982 1301 1545 1711 2292 3281 3044 3030 2922 2836 2731 2585 2460 2361 2376 2322 2248 2187 2024 1781 1796 1730 1596 1601 1629 1800 1984 1996 1964 1944 1918 1955 2127 2242 2292 2353 2431 2532 2550 2443
0 0 7 0 0 0 0 0 0 0 0 0 0 145 446 0 0 0 263 625 63 19 0 83 331 380 526 1261 1530 1636 1543 1554 1480 1494 1847 2298 2262 2220 1971 1768 1500 1305 1152 1013 1098 1104 1197 1182 1208 1490 2358 3219 3578 3555 3428 3156 2888 2714 2611 2492 2392 2351 2286 2202 2066 1842 1689 1516 1328 1605 1797 1819 1849 1919 1907 1856 1874 1937 2014 2084 2145 2165 2152 2151 2176 2183
0 0 165 0 0 0 0 0 0 0 0 0 0 817 690 3 528 178 236 412 581 199 108 581 1253 1406 1577 1628 1650 1614 1605 1565 1467 1446 1495 1593 1786 1807 1520 1398 1472 1407 1291 1124 1087 1139 1392 1455 1510 1334 1941 2904 3543 3888 3792 3534 3212 3014 2914 2808 2652 2503 2441 2288 2124 2019 2086 1994 1691 1557 1832 1975 2033 2016 2028 2068 2050 2081 2150 2167 2223 2388 2468 2461 2402 2360
0 0 0 0 0 0 0 0 0 0 0 0 933 1096 1008 1002 1536 1598 1692 1578 882 284 629 1133 1387 1649 1632 1699 1683 1630 1524 1428 1429 1317 1327 1352 1446 1516 1538 1550 1466 1414 1341 1272 1218 1167 1297 1422 1392 1494 1476 1870 2855 3536 3998 3770 3582 3419 3320 3232 3108 2904 2756 2634 2708 2525 2540 2425 2090 1880 1833 2036 2104 1981 1790 1989 2140 2177 2284 2339 2335 2324 2334 2366 2433 2491
0 0 0 0 0 0 0 0 0 0 0 340 863 1316 1470 1613 1539 1304 1382 1454 1504 687 1137 1352 1635 1572 1443 1478 1629 1545 1492 1344 1192 1257 1292 1344 1476 1586 1659 1654 1626 1544 1495 1427 1309 1298 1210 1294 1648 1849 1854 2082 2348 2515 3716 3986 3788 3631 3560 3586 3511 3238 3025 2951 2852 2916 2842 2688 2306 2229 2214 2133 2005 2001 2083 2286 2227 2179 2140 2143 2129 2139 2178 2216 2232 2202
0 0 0 0 0 0 0 0 0 0 120 568 1030 1018 1182 1295 1292 1359 1502 1437 1420 1526 1567 1526 1543 1577 1443 1478 1368 1349 1232 1254 1117 1170 1244 1246 1274 1388 1483 1808 1891 1923 1815 1661 1484 1482 1434 1238 1887 2034 2002 2124 2600 3060 3256 3971 3954 3854 3791 3781 3716 3611 3488 3360 3260 3138 3047 2767 2432 2288 2183 2089 1991 1843 1971 2080 2223 2234 2185 2131 2106 2114 2135 2133 2075 1988
0 0 0 0 0 0 0 0 0 0 22 511 693 922 1124 1376 1608 1539 1676 1582 1491 1433 1471 1552 1564 1595 1432 1352 1396 1348 1187 1113 1112 1105 1223 1240 1275 1207 1243 1550 1864 1977 2190 2313 2176 1849 1553 1537 1885 1886 1886 2217 2612 3119 3430 3795 4081 3975 3865 3835 3829 3821 3763 3625 3444 3319 3145 2889 2645 2448 2447 2422 2312 2191 2170 2213 2132 2094 2079 2060 2087 2167 2234 2219 2151 2031
0 0 0 0 0 0 0 0 0 0 44 325 459 522 544 590 770 920 1551 1668 1705 1684 1637 1536 1545 1409 1634 1449 1360 1351 1478 1251 1161 1145 1094 1092 1148 1115 1094 1068 1349 1900 2117 2192 2438 2367 2426 2380 2344 2293 2056 2403 3358 3679 3685 3721 3942 4050 4049 4066 4040 3964 3854 3699 3504 3306 3121 2963 2765 2535 2532 2545 2562 2514 2553 2570 2558 2454 2389 2403 2402 2374 2246 2157 1979 1827
0 0 0 0 0 0 0 0 0 0 0 0 9 439 353 454 584 756 846 914 1435 1440 1418 1405 1439 1411 1416 1310 1478 1458 1458 1482 1388 1246 1145 1091 1031 1034 1034 1103 1042 1302 1731 2005 2019 2162 2050 2228 2356 2583 3546 3658 3706 3792 3784 3766 3830 3890 3926 3966 3950 3882 3788 3625 3422 3266 3147 3003 2827 2741 2730 2748 2761 2801 2798 2858 2799 2679 2670 2579 2556 2490 2265 2049 1962 1946
0 0 0 0 0 0 0 0 0 0 7 0 0 14 0 212 192 795 841 980 932 1120 1005 1055 1158 1100 1080 1006 951 1090 1423 1447 1549 1380 1264 1139 1035 1051 992 950 1108 1043 1245 1481 1688 1865 1862 2077 2348 2372 3249 3461 3238 3076 3045 3048 3178 3224 3294 3670 3789 3739 3672 3538 3381 3253 3146 3032 2947 2902 2874 2949 2986 2969 2980 2766 2819 2737 2606 2620 2607 2474 2332 2134 2092 2038
0 0 0 0 0 0 0 0 0 0 117 0 0 0 360 432 470 396 912 712 812 810 942 891 906 1028 1064 1063 936 944 1131 1276 1286 1229 1232 1243 1202 1142 1067 994 818 994 916 1120 1270 1897 1650 1821 2214 2511 2438 2629 2625 1987 1897 1917 2249 1994 2314 2710 3351 3667 3564 3462 3404 3322 3216 3147 3133 3088 3006 3009 3119 3155 3136 3054 2951 2880 2778 2623 2506 2459 2323 2173 2063 2080
0 0 0 0 0 0 0 0 0 33 0 0 0 0 0 301 455 400 240 333 602 650 754 579 731 740 866 969 988 907 839 933 909 1027 1000 1028 1046 1036 973 943 796 980 821 1032 1115 2021 1300 1719 1905 1928 2027 1873 1991 2029 1806 1455 1505 1429 1300 1862 2990 3674 3558 3436 3330 3375 3297 3248 3207 3148 3036 2956 3147 3222 3225 3208 3118 2902 2854 2555 2427 2427 2365 2346 2235 2217
0 1 0 0 0 0 0 0 5 1 0 0 0 0 0 270 243 115 140 469 495 585 565 488 476 507 744 811 871 812 719 677 662 744 885 891 877 819 777 814 752 804 835 910 1284 2507 1201 1194 1716 1764 1644 1712 1711 1722 1196 1551 1877 1905 2127 2274 2542 3211 3632 3576 3475 3414 3398 3337 3261 3162 3041 2952 2932 3076 3169 3166 3083 2964 2748 2573 2611 2553 2490 2416 2295 2189
0 0 0 0 6 6 9 9 131 77 0 0 0 0 0 92 8 519 490 351 381 368 337 323 315 300 301 406 658 723 673 607 541 483 898 854 694 741 672 484 490 640 721 1035 1600 2065 1434 1052 988 1445 1551 1434 1329 1436 895 1545 1814 1805 1833 2274 2600 2910 3360 3556 3467 3281 3092 3081 3062 3054 3013 2945 2900 2872 2893 2872 2821 2711 2689 2700 2618 2535 2439 2417 2306 2204
0 0 0 6 0 0 0 18 41 5 15 0 0 0 0 29 1 191 263 249 261 348 322 340 326 367 289 244 224 238 293 351 377 143 328 497 581 488 419 363 373 377 509 600 631 900 1684 1022 1026 1229 1144 782 918 970 859 596 1225 1981 1815 1732 1981 2347 2778 3175 3310 3240 3024 2866 2984 3027 2934 2848 2826 2804 2717 2698 2691 2693 2784 2841 2723 2460 2366 2440 2414 2278
0 0 0 0 0 3 0 2 0 0 0 0 0 0 0 0 0 0 0 0 0 108 147 206 264 217 94 0 0 0 0 0 0 0 0 0 10 352 387 386 308 380 547 619 596 636 1570 830 933 1279 1314 1200 1043 627 640 816 1294 1948 2011 2003 1909 1863 2180 2784 2950 2908 2978 2894 2805 2796 2871 2858 2809 2824 2785 2652 2790 2840 2858 2880 2838 2690 2564 2505 2380 2204
0 0 0 0 0 0 0 0 0 0 0 0 0 0 0 0 0 0 0 0 0 0 0 0 0 0 0 0 0 0 0 0 0 0 0 0 0 0 0 106 362 327 395 489 444 326 396 622 945 1330 1630 1607 1453 1332 1241 1092 1225 1579 1736 1910 1983 1891 2065 2357 2443 2514 2901 3147 2942 2825 2848 3016 3066 3002 2830 2887 3019 3031 3090 3015 2838 2686 2475 2400 2329 2151
0 0 0 0 0 0 0 0 0 0 0 0 0 0 0 0 0 0 0 0 0 0 0 0 0 0 0 0 0 0 0 0 0 0 0 0 0 0 0 0 0 0 270 262 184 3 97 362 862 872 1623 1640 1702 1658 1573 1418 1337 1416 1716 2026 2050 1967 2297 2606 2551 2387 2628 2812 3018 3074 3041 3024 3042 2738 2453 2502 2954 3111 3106 3012 2905 2768 2646 2479 2297 2220
0 0 0 0 0 0 0 0 0 0 0 0 0 0 0 0 0 0 0 0 0 0 0 0 0 0 0 0 0 0 0 0 0 0 0 0 0 0 0 0 0 0 0 0 33 0 34 193 151 347 1103 1511 1837 1844 1643 1542 1522 1734 1982 2318 2482 2341 2224 2594 2710 2578 2467 2400 2273 2440 2828 3052 2789 1954 2048 1551 2008 2378 2868 2927 2944 2925 2758 2558 2324 2205
0 0 0 0 0 0 0 0 0 0 0 0 0 0 0 0 0 0 0 0 0 0 0 0 0 0 0 0 0 0 0 0 0 0 0 0 0 0 0 0 0 0 0 0 0 0 7 0 0 1 420 1015 1306 1755 1666 1570 1775 1881 1951 2079 2239 2336 2311 2296 2397 2696 2570 2317 2096 1742 1888 2294 2485 2144 1448 1699 1592 1751 2458 2870 2892 2825 2691 2643 2527 2371
0 0 0 0 0 0 0 0 0 0 0 0 0 0 0 0 0 0 0 0 0 0 0 0 0 0 0 0 0 0 0 0 0 0 0 0 0 0 0 0 0 0 0 0 0 0 0 0 0 5 151 465 601 1144 1523 1631 1787 1959 2090 2139 2135 2099 2031 2060 2114 2134 2044 1998 1921 1940 1821 2009 2239 2130 2008 1682 1452 1375 2013 2724 2870 2731 2730 2659 2543 2475
0 0 0 0 0 0 0 0 0 0 0 0 0 0 0 0 0 0 0 0 0 0 0 0 1 1 0 0 1 0 0 0 0 0 0 0 0 0 0 0 0 0 0 0 0 0 0 0 0 0 1 31 56 430 1330 1871 1924 1900 2066 2216 2189 2022 1823 1746 1774 1624 1064 577 576 946 1429 1928 2075 2243 2208 1860 1608 1442 1569 2178 2352 2419 2491 2631 2545 2500
0 0 0 0 0 0 0 0 0 0 0 0 0 0 0 2 27 41 50 28 25 23 18 42 57 50 45 26 10 6 3 0 0 0 0 0 0 0 0 0 0 0 0 0 0 0 0 0 0 0 0 0 5 225 619 914 1166 1539 1791 2112 2329 2082 1864 1876 1689 1566 1526 727 666 868 1131 1500 1774 1880 1817 1689 1449 1459 1493 1569 1822 2146 2242 2166 2264 2353
Wind_Speed
nan nan nan nan nan nan nan nan nan nan nan nan nan nan nan nan nan nan 7 8 16 17 22 22 21 21 nan 34 41 43 31 26 31 34 32 32 31 32 27 20 17 17 19 17 17 16 14 12 12 14 17 16 15 13 13 13 12 14 15 15 14 12 13 13 13 12 11 10 9 9 6 5 5 5 5 3 2 2 1 0 3 5 7 9 8 8
nan nan nan nan nan nan nan nan nan nan nan nan nan nan nan nan nan nan nan nan 16 19 nan nan nan nan nan 30 38 36 29 31 35 36 37 36 32 30 27 21 18 16 11 15 16 16 16 15 13 13 15 16 18 15 15 15 14 14 16 17 16 15 14 13 12 13 13 12 10 10 8 8 7 5 4 4 2 1 1 1 3 5 8 9 9 9
nan nan nan nan nan nan nan nan nan nan nan nan nan nan nan nan nan nan nan 10 13 15 nan nan nan nan nan 27 30 35 34 32 36 40 44 42 34 28 22 18 14 11 13 17 17 18 19 18 18 17 17 17 17 18 18 17 17 16 16 17 18 17 15 14 13 14 14 15 15 14 12 9 9 6 3 4 3 3 2 2 3 5 8 8 9 9
nan nan nan nan nan nan nan nan nan nan nan nan nan nan nan nan nan nan nan 5 12 nan nan nan nan nan 15 19 24 22 20 21 29 37 41 42 39 32 27 23 20 17 16 19 20 21 19 19 19 18 18 19 19 19 19 19 19 19 18 17 18 18 17 16 14 14 14 14 14 16 15 11 10 9 7 7 8 6 5 3 4 6 9 8 8 9
nan nan nan nan nan nan nan nan nan nan nan nan nan nan nan nan nan nan nan 10 10 11 nan nan nan nan 12 17 18 14 15 21 26 30 31 34 33 32 26 21 22 26 22 18 16 18 19 20 21 21 20 21 21 22 22 22 20 21 23 21 20 19 18 17 16 16 16 16 15 15 18 17 18 16 12 11 8 5 4 5 5 6 9 8 8 8
nan nan nan nan nan nan nan nan nan nan nan nan nan nan nan nan nan nan nan 14 nan nan nan nan nan nan 8 10 14 16 17 22 21 30 33 33 30 27 25 26 24 22 18 21 20 20 22 24 22 20 21 21 21 23 23 23 23 22 23 25 23 21 20 19 17 17 17 16 14 14 15 16 14 12 10 7 5 6 5 4 6 6 8 8 8 8
nan nan nan nan nan nan nan nan nan nan nan nan nan nan nan nan nan nan nan nan nan nan nan nan nan nan 7 14 16 15 20 20 19 24 27 30 28 28 26 25 29 28 23 16 13 15 18 20 23 22 22 21 20 20 21 23 23 23 23 24 24 23 22 21 19 19 18 17 16 14 13 14 12 10 9 8 8 6 7 9 7 8 9 8 8 7
nan nan nan nan nan nan nan nan nan nan nan nan nan nan nan nan nan nan nan nan nan nan 10 nan nan nan nan 11 11 10 15 17 22 24 23 25 26 26 24 25 26 27 26 25 22 20 22 24 25 25 22 21 20 21 23 25 25 24 23 24 24 23 24 24 24 20 19 18 16 15 14 14 13 10 8 8 8 9 10 9 9 10 10 10 9 8
nan nan nan nan nan nan nan nan nan nan nan nan nan nan nan nan nan nan nan nan nan nan nan nan nan nan nan 12 12 18 22 21 21 25 25 24 22 23 24 24 22 25 29 28 23 21 22 23 21 19 18 17 18 19 23 26 26 26 25 25 24 26 25 27 28 19 17 18 17 16 16 15 15 13 11 10 10 9 10 10 11 12 12 12 11 10
nan nan nan nan nan nan nan nan nan nan nan nan nan nan nan nan nan nan nan nan nan nan nan nan nan nan nan 10 14 18 21 23 21 20 21 23 24 24 24 22 19 20 22 23 22 21 20 19 17 16 14 14 16 18 22 24 25 28 28 27 26 28 27 23 22 21 18 17 17 15 14 14 16 16 15 12 10 9 10 10 10 12 13 13 13 12
nan nan nan nan nan nan nan nan nan nan nan nan nan nan nan nan nan nan nan nan nan nan nan nan nan nan nan nan nan nan 19 22 22 21 22 20 17 19 22 24 21 18 18 20 18 15 13 14 15 17 17 14 15 17 19 21 21 25 26 24 22 25 27 21 21 26 21 20 10 7 12 15 14 14 14 12 10 10 9 9 9 10 11 13 13 13
nan nan nan nan nan nan nan nan nan nan nan nan nan nan nan nan nan nan nan nan nan nan nan nan nan nan nan nan nan nan nan 22 29 30 28 22 18 18 18 19 19 18 18 19 18 14 14 14 16 17 17 15 17 19 18 18 16 19 22 19 16 19 24 23 22 23 20 14 6 12 16 12 9 11 13 12 10 9 8 7 7 9 11 12 13 14
nan nan nan nan nan nan nan nan nan nan nan nan nan nan nan nan nan nan nan nan nan nan nan nan nan nan nan nan nan nan nan 21 27 30 25 22 20 17 16 19 19 17 16 19 20 18 15 17 19 19 18 16 19 21 19 17 12 13 17 15 11 13 19 22 23 21 18 14 9 12 9 7 12 13 13 12 12 11 10 9 8 9 9 11 12 13
nan nan nan nan nan nan nan nan nan nan nan nan nan nan nan nan nan nan nan nan nan nan nan nan nan nan nan nan nan nan nan 29 30 26 24 25 24 21 19 19 17 17 17 18 21 21 19 18 17 18 20 19 19 21 21 17 13 9 10 10 10 13 19 24 22 18 15 10 9 12 10 9 12 12 11 12 12 11 11 11 10 9 9 10 11 12
nan nan nan nan nan nan nan nan nan nan nan nan nan nan nan nan nan nan nan nan nan nan nan nan nan nan nan nan 23 nan 26 29 30 29 24 22 23 22 17 17 18 20 19 17 19 23 23 20 19 21 21 20 21 21 20 17 13 9 8 10 12 17 19 21 18 15 12 10 9 10 11 9 11 11 11 11 12 12 12 12 12 11 12 12 12 12
nan nan nan nan nan nan nan nan nan nan nan nan nan nan nan nan nan nan nan nan nan nan nan nan nan 16 nan nan 24 30 29 29 28 26 22 20 21 23 23 22 22 22 22 18 18 20 20 18 18 20 21 22 23 22 19 17 15 12 10 12 13 17 17 16 15 12 12 10 8 9 10 10 12 13 12 13 12 11 12 13 13 13 13 13 13 13
nan nan nan nan nan nan nan nan nan nan nan nan nan nan nan nan nan nan nan nan nan nan nan 14 nan nan 13 18 16 18 26 24 22 21 22 23 23 22 20 21 23 23 22 20 20 22 21 18 18 20 22 23 24 24 22 18 15 15 13 12 13 14 14 11 11 11 11 11 10 7 8 11 12 12 12 12 12 11 12 15 15 15 13 14 14 14
nan nan nan nan nan nan nan nan nan nan nan nan nan nan nan nan nan nan nan nan nan nan nan nan nan nan nan 20 14 19 26 28 26 24 24 25 25 24 19 19 21 22 22 22 21 21 22 20 19 18 20 24 26 26 23 19 15 14 13 13 13 11 12 8 6 9 11 10 9 9 9 10 11 12 13 14 12 13 14 14 16 17 17 15 15 16
nan nan nan nan nan nan nan nan nan nan nan nan nan nan nan nan nan nan nan nan nan nan nan nan nan 13 17 nan 17 21 26 25 23 22 22 23 24 23 22 20 17 18 19 20 20 20 19 20 19 18 17 22 24 23 22 19 16 14 11 10 10 11 9 7 4 7 11 10 10 11 10 10 11 12 13 14 14 14 13 13 14 15 16 19 20 20
nan nan nan nan nan nan nan nan nan nan nan nan nan nan nan nan nan nan nan nan nan nan nan nan nan nan nan nan 23 26 26 26 25 24 23 23 26 27 25 25 22 20 19 19 19 19 20 21 21 19 18 21 23 24 23 21 17 15 12 12 11 9 7 5 3 4 6 7 8 10 11 11 12 12 12 12 14 13 12 13 14 14 16 16 20 21
nan nan nan nan nan nan nan nan nan nan nan nan nan nan nan nan nan nan nan nan nan nan nan 18 nan nan nan nan nan nan 27 28 30 28 23 23 26 27 26 25 22 20 18 18 19 21 22 22 21 19 17 18 19 19 20 21 20 17 14 12 12 12 10 7 4 3 2 4 6 8 8 9 10 10 10 11 12 14 14 14 15 15 15 18 17 20
nan nan nan nan nan nan nan nan nan nan nan nan nan nan nan nan nan nan nan nan nan nan nan nan nan nan nan 21 nan nan nan 25 26 29 25 23 22 23 22 22 22 21 19 20 20 22 24 24 21 17 16 14 18 19 21 21 20 19 18 15 13 11 10 8 6 4 2 3 4 4 6 7 10 10 11 11 12 13 15 16 17 16 16 14 16 19
nan nan nan nan nan nan nan nan nan nan nan nan nan nan nan nan nan nan nan nan nan nan nan nan nan nan nan nan 18 18 18 23 26 25 23 20 17 19 19 20 18 18 20 20 20 20 21 22 21 16 14 16 18 19 21 22 22 20 18 15 14 13 12 11 9 6 4 2 1 1 4 6 7 9 9 9 11 12 14 16 17 17 14 14 16 18
16 nan nan nan nan nan nan nan nan nan nan nan nan nan nan nan nan nan nan nan nan nan nan nan nan nan nan 20 20 18 19 19 20 21 21 16 16 18 19 19 19 19 17 15 14 12 13 15 16 13 9 10 15 17 20 21 19 16 14 12 10 10 10 10 9 7 5 3 2 1 1 2 4 4 5 6 8 9 12 14 15 16 15 14 16 16
nan nan nan nan nan nan nan nan nan nan nan nan nan nan nan nan nan nan nan nan nan 19 nan nan nan nan nan 24 27 26 nan nan 15 12 17 16 12 16 17 16 16 17 16 15 13 11 12 13 13 12 9 8 12 13 15 17 17 16 13 10 8 6 7 7 7 7 5 3 2 0 0 0 2 2 2 2 5 6 8 10 12 14 13 14 14 15
nan nan nan nan nan nan nan nan nan nan nan nan nan nan nan nan nan nan nan nan nan 27 29 nan nan nan nan nan nan nan 24 19 11 10 9 10 14 16 16 15 15 16 17 14 11 9 11 11 11 9 8 7 9 11 12 14 14 14 13 12 8 7 8 8 8 7 6 4 3 1 2 1 1 1 2 2 2 3 5 7 9 11 12 13 12 14
nan nan nan nan nan nan nan nan nan nan nan nan nan nan nan nan nan nan nan nan 31 30 32 27 27 nan nan nan nan 23 26 23 16 15 11 10 11 12 12 12 13 16 17 15 13 10 10 12 12 12 10 10 9 9 11 13 14 14 13 11 9 7 8 10 10 8 8 6 4 2 2 3 3 3 2 2 2 3 4 5 7 9 11 12 12 13
nan nan nan nan nan nan nan nan nan nan nan nan nan nan nan nan nan nan nan 31 31 40 nan nan 30 nan nan nan nan 25 25 24 23 20 13 7 7 9 9 9 11 15 17 17 15 13 14 15 14 13 13 13 11 9 10 11 13 13 14 12 9 7 6 8 9 8 7 7 5 3 2 2 2 2 2 2 1 2 3 5 6 8 10 12 12 13
nan nan nan nan nan nan nan nan nan nan nan nan nan nan nan nan nan nan 32 35 nan nan nan 31 nan nan nan 27 22 24 25 28 24 22 13 10 11 12 13 11 12 17 22 23 20 17 15 16 15 16 15 16 14 11 10 9 10 11 10 10 10 8 6 6 7 7 6 5 4 3 2 0 1 1 0 2 2 2 3 4 6 9 11 12 13 14
nan nan nan nan nan nan nan nan nan nan nan nan nan 29 27 nan nan nan 30 32 nan nan nan nan 36 33 30 28 24 24 27 28 30 29 24 20 17 16 15 13 13 16 20 23 25 21 18 16 14 14 14 12 14 14 11 9 9 10 10 9 9 9 8 9 8 7 6 4 3 2 3 3 2 1 0 1 2 3 3 4 6 10 12 12 12 13
nan nan 19 nan nan nan nan nan nan nan nan nan nan 30 30 nan 34 33 32 33 35 37 38 39 36 36 32 29 29 27 26 29 34 32 27 23 22 19 16 15 15 15 16 15 18 22 20 16 13 11 11 11 11 13 14 13 11 9 8 5 6 7 8 9 10 10 9 7 5 3 3 3 3 3 3 2 2 4 5 6 8 11 12 12 12 11
nan nan nan nan nan nan nan nan nan nan nan nan 33 31 28 28 34 32 33 28 29 34 35 37 35 31 27 28 28 30 33 34 31 26 24 23 24 25 23 19 15 13 12 10 11 13 15 17 16 15 14 13 10 10 12 12 13 13 11 8 6 6 6 7 8 9 10 9 8 7 6 5 4 4 3 5 5 6 7 8 10 10 10 11 10 10
nan nan nan nan nan nan nan nan nan nan nan 28 28 26 23 30 32 35 37 39 35 28 33 31 29 28 27 27 34 32 32 31 31 27 24 23 24 26 25 23 19 15 12 10 8 10 12 14 15 16 16 15 14 12 11 12 13 13 12 12 10 9 8 7 7 7 8 8 8 8 8 8 8 6 6 6 7 8 9 9 8 8 9 7 8 9
nan nan nan nan nan nan nan nan nan nan 26 23 23 26 27 29 34 38 32 34 36 35 31 30 30 28 28 29 33 33 34 31 24 25 24 24 24 26 27 25 24 21 17 12 10 10 13 16 16 17 18 17 16 16 14 15 15 13 13 12 12 12 11 10 9 9 8 8 8 8 8 8 8 8 7 8 8 9 9 9 7 7 8 8 8 8
nan nan nan nan nan nan nan nan nan nan nan 24 26 21 18 27 34 35 34 35 35 35 33 35 33 32 29 27 26 28 30 30 28 30 31 28 28 29 30 30 30 27 25 24 20 17 17 17 18 19 20 19 17 16 18 17 16 15 15 15 15 14 14 12 12 10 9 8 8 8 9 9 9 8 9 9 10 10 9 9 8 8 8 8 7 7
nan nan nan nan nan nan nan nan nan nan nan 25 24 30 25 23 25 27 32 32 33 33 30 33 32 32 31 31 29 28 31 29 28 33 35 32 34 34 34 34 33 31 30 28 30 28 23 19 19 19 17 20 22 22 21 20 18 18 17 18 18 16 15 14 13 12 11 10 9 9 9 10 10 10 10 10 11 11 11 11 11 10 10 10 8 8
nan nan nan nan nan nan nan nan nan nan nan nan nan 26 28 25 23 25 28 26 27 29 32 33 35 36 36 35 34 37 33 31 35 30 33 34 34 34 34 31 32 33 31 30 30 30 27 24 23 24 22 22 25 26 24 24 23 21 21 20 18 18 16 15 14 12 12 11 10 10 9 10 11 12 12 12 12 11 11 11 11 11 12 12 11 10
nan nan nan nan nan nan nan nan nan nan nan nan nan nan nan 27 26 28 32 27 27 30 30 35 37 36 38 37 38 36 37 41 36 30 28 30 31 32 31 30 29 32 33 31 31 33 33 32 33 31 31 30 28 30 32 32 32 32 28 24 21 17 15 15 14 14 13 12 12 12 11 11 11 12 12 12 12 12 12 12 12 12 14 14 13 12
nan nan nan nan nan nan nan nan nan nan 24 nan nan nan 25 29 27 31 35 30 26 28 28 32 35 33 34 33 33 35 41 39 31 27 25 28 27 29 29 28 29 30 32 31 32 33 35 36 36 38 40 44 47 50 50 47 47 39 29 21 14 15 15 14 15 15 14 13 13 13 13 13 13 13 13 12 12 12 13 13 13 14 15 14 14 12
nan nan nan nan nan nan nan nan nan nan nan nan nan nan nan 23 27 32 30 29 27 26 28 31 34 33 32 32 33 37 41 39 33 27 25 26 25 25 28 26 25 27 30 31 33 33 35 37 42 47 50 49 51 52 49 41 32 28 20 13 9 10 14 15 15 15 14 13 13 13 13 14 15 15 15 14 14 15 13 14 14 14 15 14 14 12
nan nan nan nan nan nan nan nan nan nan nan nan nan nan nan 23 30 31 30 31 29 27 28 31 32 32 32 33 34 36 33 37 35 29 27 26 27 28 27 25 24 24 27 28 30 32 35 38 43 49 48 48 52 55 47 33 26 24 22 17 14 13 13 15 17 17 16 16 15 14 14 14 15 15 15 16 16 17 16 16 15 15 14 14 13 13
nan nan nan nan nan nan nan nan 31 nan nan nan nan nan nan nan nan 32 32 32 33 31 31 34 34 32 33 33 33 33 31 38 46 40 30 26 26 26 27 27 27 26 27 27 28 31 33 37 42 45 50 52 53 55 45 30 19 19 22 23 17 13 16 17 17 18 19 19 17 16 16 16 16 16 17 17 18 19 18 17 17 16 14 14 14 13
nan nan nan nan nan nan nan nan nan nan nan nan nan nan nan nan nan 30 33 34 36 36 36 33 34 32 35 34 32 33 34 38 45 38 28 27 26 28 29 30 30 29 28 28 28 29 32 35 39 43 48 51 53 46 43 24 19 17 21 22 18 21 23 21 21 20 20 20 19 19 19 19 19 19 19 18 18 19 18 19 21 18 14 15 15 14
nan nan nan nan nan nan nan nan nan nan nan nan nan nan nan nan nan nan nan nan nan 36 36 36 33 33 nan nan nan nan nan nan nan nan nan nan nan 27 30 32 32 31 30 29 28 29 31 34 39 42 43 47 49 44 34 29 27 23 23 21 20 26 25 22 23 24 23 21 19 21 22 22 21 21 22 21 21 19 18 19 18 18 16 16 16 15
nan nan nan nan nan nan nan nan nan nan nan nan nan nan nan nan nan nan nan nan nan nan nan nan nan nan nan nan nan nan nan nan nan nan nan nan nan nan nan 30 31 31 31 31 31 31 32 34 39 44 43 44 43 40 39 37 32 29 25 24 28 23 23 24 24 24 24 23 22 23 24 25 25 24 24 24 23 21 19 17 19 17 15 16 16 15
nan nan nan nan nan nan nan nan nan nan nan nan nan nan nan nan nan nan nan nan nan nan nan nan nan nan nan nan nan nan nan nan nan nan nan nan nan nan nan nan nan nan 32 32 33 nan nan 35 38 43 44 41 39 36 37 38 34 28 27 30 31 30 30 29 26 24 23 26 28 27 28 28 31 32 31 28 26 23 20 18 17 16 17 16 15 15
nan nan nan nan nan nan nan nan nan nan nan nan nan nan nan nan nan nan nan nan nan nan nan nan nan nan nan nan nan nan nan nan nan nan nan nan nan nan nan nan nan nan nan nan nan nan nan 38 38 39 42 42 37 34 32 36 34 29 27 29 30 32 33 31 28 25 26 29 31 32 34 37 45 38 33 28 23 19 18 18 18 18 18 17 15 15
nan nan nan nan nan nan nan nan nan nan nan nan nan nan nan nan nan nan nan nan nan nan nan nan nan nan nan nan nan nan nan nan nan nan nan nan nan nan nan nan nan nan nan nan nan nan nan nan nan nan 40 39 37 33 29 31 34 30 28 28 30 33 33 29 27 28 31 33 32 34 38 42 38 36 26 21 18 18 18 19 21 21 19 18 18 17
nan nan nan nan nan nan nan nan nan nan nan nan nan nan nan nan nan nan nan nan nan nan nan nan nan nan nan nan nan nan nan nan nan nan nan nan nan nan nan nan nan nan nan nan nan nan nan nan nan nan 40 38 36 33 29 28 30 31 28 29 31 32 32 29 31 36 39 37 40 44 41 36 33 28 22 17 16 16 18 19 22 22 19 19 21 19
nan nan nan nan nan nan nan nan nan nan nan nan nan nan nan nan nan nan nan nan nan nan nan nan nan nan nan nan nan nan nan nan nan nan nan nan nan nan nan nan nan nan nan nan nan nan nan nan nan nan nan nan nan 35 31 28 28 30 30 30 32 32 31 35 42 46 45 43 43 39 32 28 28 26 22 19 19 21 21 21 26 23 20 21 22 23
nan nan nan nan nan nan nan nan nan nan nan nan nan nan nan nan nan nan nan nan nan nan nan nan nan nan nan nan nan nan nan nan nan nan nan nan nan nan nan nan nan nan nan nan nan nan nan nan nan nan nan nan nan 36 34 30 28 29 29 31 32 32 34 42 45 46 41 34 31 30 30 29 29 28 25 23 22 24 23 22 25 26 28 25 24 24
Wind_Direction
nan nan nan nan nan nan nan nan nan nan nan nan nan nan nan nan nan nan 350 3 344 342 0 355 350 346 nan 353 357 360 4 4 354 354 357 1 6 13 19 16 5 353 353 331 330 333 335 333 324 314 310 310 309 306 298 290 279 276 277 274 273 262 257 254 246 242 245 240 232 217 215 218 237 278 288 282 248 238 200 221 211 194 181 170 165 174
nan nan nan nan nan nan nan nan nan nan nan nan nan nan nan nan nan nan nan nan 358 347 nan nan nan nan nan 354 357 360 1 2 356 354 357 0 0 6 16 25 18 7 325 313 317 324 323 324 321 314 310 311 314 312 303 298 285 276 275 279 273 262 259 257 252 242 238 236 236 231 217 213 222 242 273 270 235 237 230 204 200 181 178 170 160 168
nan nan nan nan nan nan nan nan nan nan nan nan nan nan nan nan nan nan nan 6 348 334 nan nan nan nan nan 359 358 359 3 0 356 355 359 357 355 357 9 24 19 345 349 340 335 327 329 327 325 322 315 316 318 314 313 301 286 284 278 277 276 273 268 260 255 248 237 227 225 222 211 214 212 198 229 255 245 239 245 205 192 179 178 174 162 164
nan nan nan nan nan nan nan nan nan nan nan nan nan nan nan nan nan nan nan 311 326 nan nan nan nan nan 347 346 357 356 349 351 352 355 356 351 348 349 2 15 13 360 350 350 346 342 335 331 327 323 319 319 316 314 313 310 302 293 284 276 277 276 270 264 258 253 243 239 229 218 212 206 212 204 196 207 217 210 225 208 193 180 180 178 167 167
nan nan nan nan nan nan nan nan nan nan nan nan nan nan nan nan nan nan nan 303 304 317 nan nan nan nan 331 336 337 328 331 334 340 348 345 345 342 346 356 7 5 359 352 347 344 343 338 336 337 333 324 318 320 321 319 317 309 298 299 290 282 275 271 264 259 256 248 242 232 219 210 207 209 201 205 205 193 198 210 213 199 172 181 181 173 171
nan nan nan nan nan nan nan nan nan nan nan nan nan nan nan nan nan nan nan 293 nan nan nan nan nan nan 337 331 322 326 329 333 336 339 343 334 336 335 347 2 351 342 345 344 347 352 351 347 334 328 328 327 322 322 319 314 307 295 296 294 285 277 270 267 259 254 247 246 245 234 222 221 217 212 207 195 187 189 198 201 201 188 184 185 181 180
nan nan nan nan nan nan nan nan nan nan nan nan nan nan nan nan nan nan nan nan nan nan nan nan nan nan 296 323 336 333 331 326 327 334 331 330 334 335 346 349 348 340 337 341 346 356 358 349 339 337 336 334 325 315 303 297 295 293 291 290 288 282 276 272 263 255 245 241 239 240 234 229 229 224 194 188 185 190 194 203 203 197 190 187 188 186
nan nan nan nan nan nan nan nan nan nan nan nan nan nan nan nan nan nan nan nan nan nan 285 nan nan nan nan 331 335 306 308 320 327 327 325 334 332 332 341 344 342 343 346 348 353 5 12 3 352 348 342 335 331 318 307 296 285 288 287 284 281 276 272 265 251 247 247 240 232 230 229 231 231 231 227 209 191 189 201 204 200 200 192 189 188 193
nan nan nan nan nan nan nan nan nan nan nan nan nan nan nan nan nan nan nan nan nan nan nan nan nan nan nan 319 302 308 317 325 327 328 324 325 332 333 342 349 347 352 354 354 354 6 14 10 1 351 345 334 322 310 303 292 274 260 258 259 260 264 265 260 261 249 237 239 231 225 222 225 223 226 225 223 211 200 200 208 203 200 194 188 185 193
nan nan nan nan nan nan nan nan nan nan nan nan nan nan nan nan nan nan nan nan nan nan nan nan nan nan nan 299 300 306 309 318 324 322 321 332 338 341 347 2 5 358 357 358 0 9 15 5 355 346 336 331 322 313 301 288 268 250 249 255 257 254 250 252 264 267 248 233 233 232 223 225 223 224 222 229 230 213 204 212 211 204 197 190 186 190
nan nan nan nan nan nan nan nan nan nan nan nan nan nan nan nan nan nan nan nan nan nan nan nan nan nan nan nan nan nan 306 311 305 311 325 332 332 341 351 1 10 0 357 2 2 10 4 345 337 334 336 327 315 310 302 291 272 256 257 264 266 262 256 250 251 256 252 237 208 239 240 229 224 227 234 236 242 235 217 215 220 215 205 196 190 192
nan nan nan nan nan nan nan nan nan nan nan nan nan nan nan nan nan nan nan nan nan nan nan nan nan nan nan nan nan nan nan 312 322 329 335 338 334 330 341 359 3 356 356 358 355 354 349 331 328 331 332 329 318 313 314 310 291 265 258 265 271 270 272 276 284 291 289 283 286 242 244 248 243 247 241 249 258 258 252 230 226 223 220 208 199 196
nan nan nan nan nan nan nan nan nan nan nan nan nan nan nan nan nan nan nan nan nan nan nan nan nan nan nan nan nan nan nan 322 335 337 340 340 331 323 330 346 354 349 342 352 347 343 347 344 338 338 339 337 330 327 329 329 311 272 259 271 292 300 280 274 269 271 260 253 256 264 271 258 238 231 241 245 250 254 254 241 229 230 228 224 216 207
nan nan nan nan nan nan nan nan nan nan nan nan nan nan nan nan nan nan nan nan nan nan nan nan nan nan nan nan nan nan nan 332 335 332 333 333 328 330 345 348 343 332 341 352 346 342 346 350 344 338 344 344 332 334 342 343 340 322 295 287 285 273 256 252 257 265 269 267 249 246 249 240 236 226 236 239 247 249 249 245 238 234 230 230 231 227
nan nan nan nan nan nan nan nan nan nan nan nan nan nan nan nan nan nan nan nan nan nan nan nan nan nan nan nan 315 nan 323 327 328 327 327 328 321 319 323 330 332 330 334 347 349 346 346 350 346 342 342 340 336 341 351 352 347 347 313 292 280 271 270 266 259 260 269 260 246 246 250 247 239 229 224 237 240 246 247 245 245 233 228 227 225 229
nan nan nan nan nan nan nan nan nan nan nan nan nan nan nan nan nan nan nan nan nan nan nan nan nan 315 nan nan 314 316 324 326 330 327 322 320 319 314 311 323 334 336 337 346 353 350 346 344 343 341 338 337 341 347 354 353 354 346 323 313 314 308 303 289 274 261 263 258 251 248 246 239 232 227 224 224 237 242 243 246 246 243 237 232 229 224
nan nan nan nan nan nan nan nan nan nan nan nan nan nan nan nan nan nan nan nan nan nan nan 290 nan nan 324 298 304 320 320 326 327 330 327 329 327 315 316 324 336 341 346 349 355 354 353 345 341 343 340 339 343 348 353 353 354 347 336 330 329 319 316 304 268 258 255 251 246 244 237 234 230 229 236 234 231 243 244 243 243 245 245 242 240 234
nan nan nan nan nan nan nan nan nan nan nan nan nan nan nan nan nan nan nan nan nan nan nan nan nan nan nan 321 312 315 324 331 332 339 334 332 326 321 325 326 335 343 348 354 352 350 352 350 344 342 341 340 345 347 346 348 349 350 346 344 338 329 332 328 281 251 251 254 247 232 225 224 226 228 229 235 235 233 241 242 238 237 242 246 246 245
nan nan nan nan nan nan nan nan nan nan nan nan nan nan nan nan nan nan nan nan nan nan nan nan nan 314 309 nan 298 317 325 332 335 336 335 333 328 327 324 321 325 331 337 348 348 343 344 344 344 347 344 341 342 341 339 338 341 345 347 339 337 348 357 356 321 260 252 252 237 225 217 217 221 225 228 231 235 238 239 243 242 239 240 239 240 244
nan nan nan nan nan nan nan nan nan nan nan nan nan nan nan nan nan nan nan nan nan nan nan nan nan nan nan nan 314 323 327 329 333 335 345 344 336 328 322 321 325 332 345 354 351 346 345 345 343 344 339 344 342 338 336 335 337 343 340 339 335 335 339 340 337 276 263 248 228 217 215 213 217 223 230 235 236 241 241 238 240 238 238 239 238 240
nan nan nan nan nan nan nan nan nan nan nan nan nan nan nan nan nan nan nan nan nan nan nan 300 nan nan nan nan nan nan 323 329 330 335 338 343 334 325 319 320 329 337 347 353 350 349 349 349 345 337 327 339 337 334 334 338 342 340 335 340 344 342 351 355 344 307 256 223 200 203 207 211 218 220 227 234 238 238 238 237 237 239 239 238 236 237
nan nan nan nan nan nan nan nan nan nan nan nan nan nan nan nan nan nan nan nan nan nan nan nan nan nan nan 294 nan nan nan 326 330 328 333 337 333 320 321 324 333 346 353 348 349 348 348 348 344 325 309 324 332 338 344 345 344 344 343 347 348 344 350 349 344 336 289 220 200 193 199 205 212 222 231 236 238 239 238 239 240 241 241 243 237 239
nan nan nan nan nan nan nan nan nan nan nan nan nan nan nan nan nan nan nan nan nan nan nan nan nan nan nan nan 292 313 321 323 326 323 331 336 330 318 326 322 336 352 357 0 355 352 348 348 347 342 324 324 332 342 352 352 353 352 349 348 351 350 353 349 346 338 330 319 271 197 214 221 222 229 235 237 236 237 239 241 244 245 246 242 238 239
250 nan nan nan nan nan nan nan nan nan nan nan nan nan nan nan nan nan nan nan nan nan nan nan nan nan nan 268 278 284 288 296 305 323 334 334 320 314 316 314 326 344 356 6 11 355 344 341 346 352 354 325 323 344 2 2 357 352 352 356 350 354 345 340 338 339 344 347 11 360 258 256 245 243 240 241 241 241 242 244 246 248 245 242 241 240
nan nan nan nan nan nan nan nan nan nan nan nan nan nan nan nan nan nan nan nan nan 270 nan nan nan nan nan 285 282 277 nan nan 288 321 335 322 320 309 303 306 325 339 344 355 11 354 331 328 336 359 30 5 335 348 4 3 355 349 350 352 357 342 329 323 316 320 320 317 342 354 51 348 279 296 289 269 251 250 249 246 246 248 249 246 245 242
nan nan nan nan nan nan nan nan nan nan nan nan nan nan nan nan nan nan nan nan nan 257 265 nan nan nan nan nan nan nan 288 283 278 295 311 319 311 299 291 300 320 332 339 345 354 339 322 320 321 338 26 33 357 359 2 357 351 345 344 352 349 341 322 314 305 305 301 298 305 340 9 2 305 344 353 345 292 272 263 257 252 253 252 257 256 251
nan nan nan nan nan nan nan nan nan nan nan nan nan nan nan nan nan nan nan nan 256 257 260 266 272 nan nan nan nan 288 294 297 286 272 283 291 282 281 290 301 320 330 331 326 327 332 323 321 322 332 358 12 7 8 2 350 344 347 350 352 353 346 328 316 314 309 309 308 318 325 6 357 6 4 1 351 333 297 277 275 270 266 266 267 267 264
nan nan nan nan nan nan nan nan nan nan nan nan nan nan nan nan nan nan nan 254 261 255 nan nan 272 nan nan nan nan 290 287 298 295 280 270 279 300 302 307 302 315 318 316 314 322 335 338 332 334 342 353 354 359 11 11 348 339 345 349 347 346 344 322 309 309 312 312 311 318 339 20 25 8 358 6 352 319 304 293 282 278 277 273 270 272 270
nan nan nan nan nan nan nan nan nan nan nan nan nan nan nan nan nan nan 253 258 nan nan nan 273 nan nan nan 275 283 281 287 298 295 294 306 293 278 287 298 307 317 318 318 321 331 336 337 340 347 352 352 349 347 359 8 354 336 335 345 345 339 337 339 310 300 302 309 306 322 342 347 306 230 236 341 347 327 311 297 285 278 274 273 271 269 266
nan nan nan nan nan nan nan nan nan nan nan nan nan 227 226 nan nan nan 260 262 nan nan nan nan 272 267 266 266 272 278 282 287 285 285 287 289 292 295 302 312 320 318 319 324 329 336 338 343 346 348 342 342 346 347 345 346 342 337 347 356 346 348 342 322 322 316 313 326 350 334 298 296 269 263 273 293 301 299 289 273 264 263 265 264 265 262
nan nan 261 nan nan nan nan nan nan nan nan nan nan 230 224 nan 242 243 250 248 254 255 262 267 265 263 259 262 265 268 275 280 276 279 284 285 289 295 303 307 310 316 319 320 322 327 332 335 335 328 324 333 341 345 342 340 336 323 322 329 337 347 340 331 333 333 331 343 342 330 302 282 280 278 286 294 289 277 277 271 260 257 257 259 258 257
nan nan nan nan nan nan nan nan nan nan nan nan 239 230 225 251 254 246 253 248 263 273 271 269 266 266 264 264 275 269 266 265 269 271 271 274 278 280 280 285 295 303 303 312 319 316 315 321 320 319 322 323 328 334 337 336 329 319 323 322 329 341 322 322 329 335 340 342 331 323 319 313 296 285 275 273 275 273 267 260 255 251 250 253 256 256
nan nan nan nan nan nan nan nan nan nan nan 251 244 233 241 251 258 254 246 243 247 262 262 264 269 271 276 279 273 269 270 267 266 267 268 264 267 269 267 263 264 283 298 297 307 314 309 305 305 309 312 308 314 323 334 332 322 321 319 318 326 310 309 309 309 316 326 327 323 320 313 301 296 285 272 269 268 266 261 261 257 254 253 256 258 257
nan nan nan nan nan nan nan nan nan nan 263 268 268 256 243 244 247 249 246 243 240 248 262 266 269 273 271 270 274 276 273 273 271 262 263 261 259 260 261 260 262 266 273 277 282 288 290 290 291 291 295 301 309 319 321 319 320 317 310 309 298 303 305 304 302 303 307 308 315 318 315 305 299 292 283 275 271 270 273 273 276 270 265 259 256 262
nan nan nan nan nan nan nan nan nan nan nan 275 278 283 275 267 262 259 249 241 239 242 250 253 253 257 263 268 271 276 276 279 276 266 256 253 256 260 263 261 258 260 257 250 253 266 276 286 284 280 280 289 300 304 307 310 308 301 296 294 293 293 294 297 303 304 306 314 317 318 321 321 315 309 295 288 287 287 287 287 284 284 282 280 280 285
nan nan nan nan nan nan nan nan nan nan nan 275 279 263 250 261 262 258 247 240 238 241 251 256 257 258 260 261 265 272 277 270 272 268 259 251 255 259 259 262 258 255 250 255 256 255 259 259 261 260 268 277 286 292 298 304 297 291 293 287 289 286 287 292 300 309 311 318 323 328 329 328 327 322 314 309 305 304 302 298 301 303 296 292 291 290
nan nan nan nan nan nan nan nan nan nan nan nan nan 262 259 261 252 258 264 251 244 241 244 249 247 252 254 257 260 263 271 270 264 256 256 254 251 252 254 256 261 258 254 249 248 247 247 247 253 254 256 267 278 280 283 280 276 274 271 274 276 282 288 293 300 306 314 323 328 331 328 324 323 322 321 317 312 310 310 308 306 303 297 300 302 302
nan nan nan nan nan nan nan nan nan nan nan nan nan nan nan 264 261 268 270 263 251 246 249 251 249 245 246 248 251 256 266 261 256 256 254 253 256 252 251 253 256 259 257 252 248 246 243 239 236 242 248 245 246 247 247 251 247 246 249 255 262 273 288 297 307 308 313 323 329 331 326 321 316 314 311 306 311 313 313 312 305 304 299 305 305 305
nan nan nan nan nan nan nan nan nan nan 274 nan nan nan 260 263 261 270 266 264 264 261 258 260 257 256 258 258 256 258 260 261 260 262 256 257 253 258 257 254 256 258 256 253 251 247 243 239 239 243 244 242 246 248 244 240 240 239 229 210 235 281 294 304 306 308 313 317 318 321 321 317 312 311 306 303 305 307 306 307 307 299 294 296 294 298
nan nan nan nan nan nan nan nan nan nan nan nan nan nan nan 261 265 272 271 270 270 264 264 264 263 261 260 262 262 263 264 261 259 256 256 255 262 261 259 253 252 256 254 253 250 250 248 245 242 244 246 244 247 252 254 259 266 280 292 310 300 282 297 300 300 298 296 298 301 305 310 309 310 308 307 306 299 293 298 289 288 294 296 292 292 293
nan nan nan nan nan nan nan nan nan nan nan nan nan nan nan 267 273 271 274 276 276 272 269 270 268 265 263 260 263 260 264 268 266 261 258 254 252 251 247 247 250 255 250 250 252 251 249 248 249 252 254 254 254 260 257 252 262 273 278 284 285 281 280 283 285 285 284 287 289 292 298 302 305 308 305 303 301 295 288 286 288 288 291 294 291 286
nan nan nan nan nan nan nan nan 282 nan nan nan nan nan nan nan nan 277 279 281 281 278 275 273 270 267 266 264 263 263 262 262 254 244 248 251 247 249 253 249 247 245 245 250 249 252 252 248 250 253 257 255 257 258 258 265 270 273 272 270 270 275 276 271 271 273 278 282 287 288 289 293 296 298 300 297 296 294 292 288 288 283 292 297 292 292
nan nan nan nan nan nan nan nan nan nan nan nan nan nan nan nan nan 281 277 271 276 276 273 272 272 271 270 264 261 260 259 263 269 268 259 257 250 241 241 247 248 246 247 246 243 246 246 248 251 255 259 263 264 265 270 276 291 288 285 285 295 291 283 273 266 267 271 277 283 284 283 283 286 288 287 287 289 291 293 290 286 286 293 292 293 297
nan nan nan nan nan nan nan nan nan nan nan nan nan nan nan nan nan nan nan nan nan 277 276 273 269 270 nan nan nan nan nan nan nan nan nan nan nan 250 246 246 247 247 246 245 244 246 249 254 257 260 261 264 268 273 273 276 282 285 287 294 288 280 277 272 267 262 267 272 276 274 273 274 277 280 281 282 280 281 284 285 286 284 286 291 294 296
nan nan nan nan nan nan nan nan nan nan nan nan nan nan nan nan nan nan nan nan nan nan nan nan nan nan nan nan nan nan nan nan nan nan nan nan nan nan nan 245 246 247 244 242 240 240 247 252 256 264 263 261 263 266 270 268 265 258 256 257 256 269 278 280 274 267 265 268 266 262 262 264 266 269 271 270 271 272 273 273 276 280 282 285 288 289
nan nan nan nan nan nan nan nan nan nan nan nan nan nan nan nan nan nan nan nan nan nan nan nan nan nan nan nan nan nan nan nan nan nan nan nan nan nan nan nan nan nan 242 240 237 nan nan 246 252 260 267 264 263 262 264 266 267 263 263 263 261 262 263 264 268 267 261 257 258 258 256 258 255 248 242 244 251 262 266 268 274 277 278 279 281 286
nan nan nan nan nan nan nan nan nan nan nan nan nan nan nan nan nan nan nan nan nan nan nan nan nan nan nan nan nan nan nan nan nan nan nan nan nan nan nan nan nan nan nan nan nan nan nan 244 245 247 261 267 266 265 262 268 268 265 258 258 260 262 263 263 262 258 253 248 245 244 246 250 251 252 251 248 239 239 260 273 276 280 280 280 281 283
nan nan nan nan nan nan nan nan nan nan nan nan nan nan nan nan nan nan nan nan nan nan nan nan nan nan nan nan nan nan nan nan nan nan nan nan nan nan nan nan nan nan nan nan nan nan nan nan nan nan 248 260 266 268 264 264 269 267 262 258 259 261 262 261 260 258 255 251 249 249 252 257 265 270 277 284 288 287 284 285 286 288 288 287 289 286
nan nan nan nan nan nan nan nan nan nan nan nan nan nan nan nan nan nan nan nan nan nan nan nan nan nan nan nan nan nan nan nan nan nan nan nan nan nan nan nan nan nan nan nan nan nan nan nan nan nan 251 252 259 262 262 261 264 267 264 261 261 261 261 258 253 247 243 245 245 242 242 250 261 269 275 281 278 263 255 269 281 285 283 287 288 289
nan nan nan nan nan nan nan nan nan nan nan nan nan nan nan nan nan nan nan nan nan nan nan nan nan nan nan nan nan nan nan nan nan nan nan nan nan nan nan nan nan nan nan nan nan nan nan nan nan nan nan nan nan 257 258 257 257 262 265 262 262 261 259 255 254 255 251 255 259 257 255 259 267 270 271 270 265 255 245 233 223 228 260 275 279 275
nan nan nan nan nan nan nan nan nan nan nan nan nan nan nan nan nan nan nan nan nan nan nan nan nan nan nan nan nan nan nan nan nan nan nan nan nan nan nan nan nan nan nan nan nan nan nan nan nan nan nan nan nan 254 256 255 253 255 258 261 261 259 256 254 257 259 257 255 260 269 275 277 281 284 281 274 268 264 255 246 245 245 229 222 257 266